Find Starlink 11186

NORAD ID: 60070 Int'l Des: 2024-113 Owner: SPXS Country: US Constellation: starlink operational
LEOCIRCULAR

Live Position

Loading 3D Globe...

About Starlink 11186

Description loading...

Upcoming Passes

Passes for default location (London). Set your location on the main map for personalized predictions.

Altitude History

Loading altitude history...

Two-Line Element Set

1 60070U 24113M 26120.68056672 .00000267 00000-0 70601-5 0 9999
2 60070 53.1568 295.1523 0000668 74.7957 285.3134 15.69710784108136
Epoch: Apr 30, 2026 • Age: 31 hours

Current Status

Altitude 369.4 km
Velocity 7.69 km/s
Sub-Earth Point -30.41°S, 82.66°W
Launch Date Jun 19, 2024
Age 1.8 years
Type internet

Technical Details

Classification Payload
Mass 960.00 kg
Dry Mass 910.00 kg
Total Mass 960.00 kg
Length 0.30 m
Diameter 4.10 m
Span 29.00 m
Shape Box + pan
Manufacturer SPXS
Bus Type Starlink V2MD
Phase Status In Orbit
Owner/State SPXS/US

Most Searched